When you browse on this site, cookies collect data to enhance your experience and personalize the content and advertising you see.
Visit our Privacy Policy to learn more. By continuing to use the site, you agree to this use of cookies and data.
  • en Suisse
  • Liste des pays
  • À 7 jours
  • Température de l'eau
  • Carte météo
  • Widgets météo
  • user-avatar
    Se connecter

    Météo par heure à Tymoshyne

    Ce jour, 25 Janvier, Samedi

    Heure Température Précipitation Vent Pression Humidité
    00:00 -4°C° 0 mm 7 m/s 744 mmHg 83%
    01:00 -4°C° 0 mm 7 m/s 743 mmHg 86%
    02:00 -4°C° 0 mm 7 m/s 743 mmHg 89%
    03:00 -4°C° 0 mm 7 m/s 743 mmHg 92%
    04:00 -3°C° 0 mm 7 m/s 743 mmHg 89%
    05:00 -3°C° 0 mm 7 m/s 742 mmHg 86%
    06:00 -3°C° 0 mm 7 m/s 742 mmHg 84%
    07:00 -3°C° 0.1 mm 7 m/s 742 mmHg 84%
    08:00 -3°C° 0.1 mm 7 m/s 742 mmHg 84%
    09:00 -3°C° 0.1 mm 7 m/s 742 mmHg 84%
    10:00 -3°C° 0.7 mm 7 m/s 742 mmHg 88%
    11:00 -4°C° 0.7 mm 7 m/s 742 mmHg 92%
    12:00 -4°C° 0.7 mm 7 m/s 742 mmHg 95%
    13:00 -3°C° 0.4 mm 7 m/s 742 mmHg 96%
    14:00 -3°C° 0.4 mm 7 m/s 742 mmHg 96%
    15:00 -3°C° 0.4 mm 7 m/s 741 mmHg 96%
    16:00 -3°C° 0 mm 7 m/s 741 mmHg 95%
    17:00 -3°C° 0 mm 7 m/s 741 mmHg 94%
    18:00 -3°C° 0 mm 7 m/s 741 mmHg 93%
    19:00 -3°C° 0 mm 7 m/s 741 mmHg 93%
    20:00 -2°C° 0 mm 7 m/s 741 mmHg 93%
    21:00 -2°C° 0 mm 7 m/s 741 mmHg 92%
    22:00 -2°C° 0.1 mm 7 m/s 741 mmHg 93%
    23:00 -2°C° 0.1 mm 7 m/s 741 mmHg 94%

    Demain, 26 Janvier, Dimanche

    Heure Température Précipitation Vent Pression Humidité
    00:00 -2°C° 0.1 mm 8 m/s 741 mmHg 94%
    01:00 -2°C° 0 mm 7 m/s 742 mmHg 93%
    02:00 -2°C° 0 mm 7 m/s 742 mmHg 91%
    03:00 -2°C° 0 mm 6 m/s 742 mmHg 90%
    04:00 -3°C° 0 mm 6 m/s 742 mmHg 89%
    05:00 -3°C° 0 mm 6 m/s 743 mmHg 89%
    06:00 -4°C° 0 mm 6 m/s 743 mmHg 88%
    07:00 -4°C° 0 mm 6 m/s 744 mmHg 86%
    08:00 -3°C° 0 mm 6 m/s 745 mmHg 84%
    09:00 -3°C° 0 mm 6 m/s 746 mmHg 82%
    10:00 -3°C° 0 mm 6 m/s 746 mmHg 81%
    11:00 -3°C° 0 mm 6 m/s 747 mmHg 80%
    12:00 -3°C° 0 mm 6 m/s 748 mmHg 79%
    13:00 -2°C° 0 mm 5 m/s 748 mmHg 79%
    14:00 -2°C° 0 mm 5 m/s 748 mmHg 79%
    15:00 -2°C° 0 mm 4 m/s 749 mmHg 79%
    16:00 -3°C° 0 mm 4 m/s 749 mmHg 82%
    17:00 -2°C° 0 mm 3 m/s 749 mmHg 85%
    18:00 -4°C° 0 mm 3 m/s 749 mmHg 88%
    19:00 -4°C° 0 mm 3 m/s 750 mmHg 88%
    20:00 -4°C° 0 mm 3 m/s 750 mmHg 89%
    21:00 -3°C° 0 mm 2 m/s 750 mmHg 89%
    22:00 -4°C° 0 mm 3 m/s 750 mmHg 88%
    23:00 -4°C° 0 mm 3 m/s 750 mmHg 87%

    Après-demain, 27 Janvier, Lundi

    Heure Température Précipitation Vent Pression Humidité
    00:00 -4°C° 0 mm 4 m/s 750 mmHg 87%
    01:00 -4°C° 0 mm 4 m/s 750 mmHg 87%
    02:00 -4°C° 0 mm 4 m/s 750 mmHg 87%
    03:00 -4°C° 0 mm 4 m/s 749 mmHg 88%
    04:00 -4°C° 0 mm 4 m/s 749 mmHg 89%
    05:00 -5°C° 0 mm 5 m/s 749 mmHg 91%
    06:00 -5°C° 0 mm 5 m/s 749 mmHg 93%
    07:00 -5°C° 0 mm 5 m/s 749 mmHg 93%
    08:00 -5°C° 0 mm 5 m/s 749 mmHg 93%
    09:00 -5°C° 0 mm 5 m/s 749 mmHg 93%
    10:00 -4°C° 0 mm 5 m/s 749 mmHg 91%
    11:00 -2°C° 0 mm 4 m/s 749 mmHg 89%
    12:00 -1°C° 0 mm 4 m/s 749 mmHg 87%
    13:00 -1°C° 0 mm 4 m/s 749 mmHg 87%
    14:00 -1°C° 0 mm 4 m/s 749 mmHg 87%
    15:00 +1°C° 0 mm 3 m/s 749 mmHg 87%
    16:00 0°C° 0 mm 3 m/s 749 mmHg 88%
    17:00 0°C° 0 mm 3 m/s 749 mmHg 90%
    18:00 -1°C° 0 mm 3 m/s 749 mmHg 91%
    19:00 -1°C° 0 mm 3 m/s 749 mmHg 92%
    20:00 -1°C° 0 mm 2 m/s 749 mmHg 92%
    21:00 -1°C° 0 mm 2 m/s 749 mmHg 93%
    22:00 -1°C° 0 mm 2 m/s 749 mmHg 93%
    23:00 -1°C° 0 mm 2 m/s 749 mmHg 93%

    28 Janvier, Mardi

    Heure Température Précipitation Vent Pression Humidité
    00:00 -1°C° 0 mm 2 m/s 749 mmHg 93%
    01:00 -1°C° 0 mm 2 m/s 748 mmHg 92%
    02:00 -1°C° 0 mm 2 m/s 748 mmHg 92%
    03:00 -1°C° 0 mm 2 m/s 748 mmHg 91%
    04:00 -1°C° 0 mm 2 m/s 748 mmHg 90%
    05:00 -1°C° 0 mm 2 m/s 747 mmHg 90%
    06:00 -1°C° 0 mm 2 m/s 747 mmHg 89%
    07:00 -1°C° 0 mm 2 m/s 747 mmHg 89%
    08:00 -1°C° 0 mm 2 m/s 747 mmHg 89%
    09:00 -1°C° 0 mm 2 m/s 747 mmHg 88%
    10:00 -1°C° 0 mm 2 m/s 747 mmHg 89%
    11:00 0°C° 0 mm 3 m/s 747 mmHg 91%
    12:00 0°C° 0 mm 3 m/s 746 mmHg 92%
    13:00 0°C° 0 mm 3 m/s 746 mmHg 93%
    14:00 0°C° 0 mm 3 m/s 746 mmHg 95%
    15:00 +1°C° 0 mm 3 m/s 745 mmHg 96%
    16:00 +1°C° 0 mm 2 m/s 745 mmHg 97%
    17:00 +1°C° 0 mm 2 m/s 745 mmHg 97%
    18:00 +1°C° 0 mm 2 m/s 745 mmHg 97%
    19:00 +1°C° 0 mm 2 m/s 745 mmHg 97%
    20:00 +1°C° 0 mm 2 m/s 745 mmHg 97%
    21:00 +1°C° 0 mm 2 m/s 745 mmHg 96%
    22:00 0°C° 0.1 mm 3 m/s 745 mmHg 96%
    23:00 0°C° 0.1 mm 3 m/s 745 mmHg 95%

    29 Janvier, Mercredi

    Heure Température Précipitation Vent Pression Humidité
    00:00 +1°C° 0.1 mm 3 m/s 745 mmHg 94%
    01:00 0°C° 0 mm 3 m/s 745 mmHg 94%
    02:00 0°C° 0 mm 3 m/s 744 mmHg 94%
    03:00 0°C° 0 mm 3 m/s 744 mmHg 94%
    04:00 -1°C° 0 mm 3 m/s 744 mmHg 95%
    05:00 -1°C° 0 mm 3 m/s 744 mmHg 95%
    06:00 -2°C° 0 mm 3 m/s 744 mmHg 95%
    07:00 -1°C° 0 mm 3 m/s 743 mmHg 96%
    08:00 -1°C° 0 mm 3 m/s 743 mmHg 96%
    09:00 -1°C° 0 mm 3 m/s 743 mmHg 96%
    10:00 0°C° 0 mm 3 m/s 743 mmHg 96%
    11:00 0°C° 0 mm 4 m/s 743 mmHg 96%
    12:00 0°C° 0 mm 4 m/s 742 mmHg 96%
    13:00 0°C° 0.1 mm 4 m/s 742 mmHg 96%
    14:00 0°C° 0.1 mm 4 m/s 741 mmHg 97%
    15:00 0°C° 0.1 mm 4 m/s 740 mmHg 97%
    16:00 0°C° 0.1 mm 4 m/s 740 mmHg 97%
    17:00 0°C° 0.1 mm 5 m/s 740 mmHg 97%
    18:00 0°C° 0.1 mm 5 m/s 739 mmHg 97%
    19:00 0°C° 0.1 mm 5 m/s 739 mmHg 97%
    20:00 +1°C° 0.1 mm 5 m/s 738 mmHg 97%
    21:00 +1°C° 0.1 mm 5 m/s 737 mmHg 97%
    22:00 +1°C° 1.2 mm 5 m/s 737 mmHg 97%
    23:00 +1°C° 1.2 mm 6 m/s 737 mmHg 96%

    30 Janvier, Jeudi

    Heure Température Précipitation Vent Pression Humidité
    00:00 +2°C° 1.2 mm 6 m/s 736 mmHg 96%
    01:00 0°C° 0.5 mm 7 m/s 736 mmHg 96%
    02:00 0°C° 0.5 mm 8 m/s 736 mmHg 95%
    03:00 -1°C° 0.5 mm 9 m/s 736 mmHg 95%
    04:00 -1°C° 0 mm 8 m/s 737 mmHg 92%
    05:00 -2°C° 0 mm 7 m/s 738 mmHg 89%
    06:00 -2°C° 0 mm 6 m/s 739 mmHg 86%
    07:00 -1°C° 0 mm 5 m/s 739 mmHg 88%
    08:00 -2°C° 0 mm 4 m/s 740 mmHg 89%
    09:00 -2°C° 0 mm 4 m/s 740 mmHg 91%
    10:00 -2°C° 0 mm 4 m/s 740 mmHg 85%
    11:00 -1°C° 0 mm 4 m/s 740 mmHg 80%
    12:00 0°C° 0 mm 4 m/s 740 mmHg 75%
    13:00 0°C° 0 mm 4 m/s 740 mmHg 74%
    14:00 +2°C° 0 mm 3 m/s 739 mmHg 73%
    15:00 +2°C° 0 mm 3 m/s 739 mmHg 72%
    16:00 +1°C° 0 mm 3 m/s 738 mmHg 74%
    17:00 +1°C° 0 mm 3 m/s 738 mmHg 76%
    18:00 +1°C° 0 mm 2 m/s 738 mmHg 77%
    19:00 +1°C° 0 mm 2 m/s 738 mmHg 78%
    20:00 +1°C° 0 mm 2 m/s 738 mmHg 79%
    21:00 +1°C° 0 mm 2 m/s 739 mmHg 79%
    22:00 -1°C° 0 mm 2 m/s 739 mmHg 81%
    23:00 +1°C° 0 mm 1 m/s 738 mmHg 83%
    Voir plus